User: anonymous   Login
Location: Unspecified
(0.0000°N, 0.0000°E)
Time: 17:37:02
(UTC+00:00)
Language:

APRIZESAT 10 - Orbit

View from above orbital plane
View from above orbital plane
View from above satellite
View from above satellite

Ground track
Ground track

The orbit data is extracted from the following two-line orbital elements,

1 40019U 14033K   18171.20594759 -.00000009  00000-0  70829-5 0  9995
2 40019  97.7856  30.7704 0083185 231.1008 128.2759 14.66943020214173
Epoch (UTC): 20 June 2018 04:56:33
Eccentricity: 0.0083185
inclination: 97.7856°
perigee height: 612 km
apogee height: 729 km
right ascension of ascending node: 30.7704°
argument of perigee: 231.1008°
revolutions per day: 14.66943020
mean anomaly at epoch: 128.2759°
orbit number at epoch: 21417

The dashed part of the orbit path shows where the satellite is in the earth's shadow,  

DLR